W0DXV Weather Reports


Display with metric or nautical units.
time (UTC)temp
F
wind
direction
speed
MPH
gust
MPH
rain 1hr
in
rain 24hr
in
rain mn
in
humidity
%
barometer
mb
20260505200627 79 227 3.0 5.0 0.00 0.00 0.00 37 1009.9
20260505200123 80 233 3.0 5.0 0.00 0.00 0.00 37 1010.0
20260505195614 82 228 3.0 3.0 0.00 0.00 0.00 36 1010.1
20260505195112 80 226 3.0 5.0 0.00 0.00 0.00 36 1010.2
20260505194608 80 230 1.0 2.0 0.00 0.00 0.00 35 1010.2
20260505194103 81 250 2.0 2.0 0.00 0.00 0.00 37 1010.2
20260505193601 81 224 3.0 3.0 0.00 0.00 0.00 36 1010.3
20260505193058 81 225 2.0 2.0 0.00 0.00 0.00 36 1010.4
20260505192557 81 252 2.0 2.0 0.00 0.00 0.00 35 1010.7
20260505192054 81 245 1.0 1.0 0.00 0.00 0.00 35 1010.7
20260505191552 80 266 3.0 3.0 0.00 0.00 0.00 35 1010.8
20260505191049 81 265 2.0 2.0 0.00 0.00 0.00 36 1010.8
20260505190544 81 267 3.0 3.0 0.00 0.00 0.00 35 1010.9
20260505190041 80 299 2.0 2.0 0.00 0.00 0.00 36 1010.9
20260505185538 79 272 1.0 2.0 0.00 0.00 0.00 38 1011.0
20260505185034 80 223 3.0 3.0 0.00 0.00 0.00 35 1011.0
20260505184531 80 248 2.0 3.0 0.00 0.00 0.00 36 1011.2
20260505184028 80 274 2.0 2.0 0.00 0.00 0.00 36 1011.4
20260505183524 80 196 3.0 3.0 0.00 0.00 0.00 38 1011.5
20260505183021 79 243 3.0 3.0 0.00 0.00 0.00 35 1011.6
20260505182512 80 232 4.0 5.0 0.00 0.00 0.00 36 1011.5
20260505182009 79 282 3.0 3.0 0.00 0.00 0.00 36 1011.8
20260505181506 80 257 3.0 5.0 0.00 0.00 0.00 35 1011.7
20260505181003 80 243 1.0 1.0 0.00 0.00 0.00 35 1011.7
20260505180458 80 274 4.0 5.0 0.00 0.00 0.00 35 1011.9
20260505175956 79 279 2.0 3.0 0.00 0.00 0.00 36 1011.8
20260505175451 79 242 3.0 3.0 0.00 0.00 0.00 36 1011.8
20260505174948 78 261 1.0 1.0 0.00 0.00 0.00 35 1011.6
20260505174446 79 256 3.0 3.0 0.00 0.00 0.00 35 1011.7
20260505173941 79 270 4.0 5.0 0.00 0.00 0.00 36 1011.6
20260505173438 79 241 2.0 2.0 0.00 0.00 0.00 36 1011.8
20260505172935 79 265 1.0 2.0 0.00 0.00 0.00 38 1011.6
20260505172434 78 242 4.0 5.0 0.00 0.00 0.00 37 1011.6
20260505171932 78 316 2.0 2.0 0.00 0.00 0.00 38 1011.8
20260505171430 78 21 1.0 1.0 0.00 0.00 0.00 38 1011.9
20260505170926 78 235 1.0 1.0 0.00 0.00 0.00 38 1011.9
20260505170423 77 276 2.0 2.0 0.00 0.00 0.00 39 1011.9
20260505165919 77 225 2.0 3.0 0.00 0.00 0.00 39 1012.2
20260505165415 77 234 2.0 2.0 0.00 0.00 0.00 40 1012.2
20260505164910 77 253 3.0 3.0 0.00 0.00 0.00 38 1012.3
20260505164407 77 277 3.0 3.0 0.00 0.00 0.00 39 1012.0
20260505163905 77 332 2.0 2.0 0.00 0.00 0.00 37 1012.2
20260505163404 77 250 3.0 3.0 0.00 0.00 0.00 39 1012.1
20260505162902 77 316 4.0 6.0 0.00 0.00 0.00 42 1012.1
20260505162358 77 235 1.0 2.0 0.00 0.00 0.00 43 1012.4
20260505161855 77 248 1.0 2.0 0.00 0.00 0.00 43 1012.4
20260505161352 77 281 2.0 2.0 0.00 0.00 0.00 43 1012.3
20260505160849 77 233 3.0 5.0 0.00 0.00 0.00 46 1012.5
20260505160347 76 235 1.0 1.0 0.00 0.00 0.00 44 1012.8
20260505153325 75 274 3.0 3.0 0.00 0.00 0.00 48 1012.5
20260505152822 75 232 3.0 3.0 0.00 0.00 0.00 47 1012.7
20260505152319 75 240 2.0 2.0 0.00 0.00 0.00 50 1012.5
20260505151814 76 249 1.0 1.0 0.00 0.00 0.00 47 1012.7
20260505151311 75 225 2.0 3.0 0.00 0.00 0.00 51 1012.8
20260505150807 74 218 1.0 1.0 0.00 0.00 0.00 52 1012.6
20260505150304 75 295 2.0 2.0 0.00 0.00 0.00 52 1012.6
20260505140229 70 193 1.0 1.0 0.00 0.00 0.00 61 1012.5
20260505130153 64 256 0.0 1.0 0.00 0.00 0.00 72 1012.4
20260505124643 62 222 0.0 1.0 0.00 0.00 0.00 75 1012.6
20260505124140 61 229 1.0 1.0 0.00 0.00 0.00 76 1012.6
20260505123636 62 230 1.0 1.0 0.00 0.00 0.00 74 1012.7
20260505123133 60 257 0.0 1.0 0.00 0.00 0.00 76 1012.4
20260505122629 59 257 0.0 0.0 0.00 0.00 0.00 80 1012.5
20260505122127 57 257 0.0 0.0 0.00 0.00 0.00 82 1012.4
20260505121623 56 257 0.0 0.0 0.00 0.00 0.00 83 1012.2
20260505121120 56 308 0.0 0.0 0.00 0.00 0.00 82 1012.3
20260505120616 56 308 0.0 0.0 0.00 0.00 0.00 80 1012.4
20260505120112 56 308 0.0 0.0 0.00 0.00 0.00 79 1012.2
20260505115606 55 308 0.0 0.0 0.00 0.00 0.00 81 1012.1
20260505115104 54 306 0.0 0.0 0.00 0.00 0.00 85 1012.4
20260505114601 51 306 0.0 0.0 0.00 0.00 0.00 94 1012.6
20260505114057 48 308 0.0 0.0 0.00 0.00 0.00 96 1012.4
20260505113554 47 307 0.0 0.0 0.00 0.00 0.00 96 1012.4
20260505113050 46 306 0.0 0.0 0.00 0.00 0.00 96 1012.1
20260505112546 46 306 0.0 0.0 0.00 0.00 0.00 96 1012.2
20260505112044 45 306 0.0 0.0 0.00 0.00 0.00 96 1012.2
20260505111538 45 306 0.0 0.0 0.00 0.00 0.00 96 1012.0
20260505111035 45 306 0.0 0.0 0.00 0.00 0.00 96 1012.2
20260505110531 45 308 0.0 0.0 0.00 0.00 0.00 96 1012.4
20260505102004 45 281 0.0 1.0 0.00 0.00 0.00 95 1012.0
20260505101503 45 274 0.0 0.0 0.00 0.00 0.00 95 1012.1
20260505100958 45 274 0.0 0.0 0.00 0.00 0.00 95 1012.2
20260505100455 46 274 0.0 0.0 0.00 0.00 0.00 95 1011.8
20260505095951 46 274 0.0 0.0 0.00 0.00 0.00 96 1011.6
20260505095448 46 274 0.0 0.0 0.00 0.00 0.00 96 1011.7
20260505094944 46 274 0.0 0.0 0.00 0.00 0.00 96 1012.0
20260505094441 46 274 0.0 0.0 0.00 0.00 0.00 96 1011.8
20260505093937 45 274 0.0 0.0 0.00 0.00 0.00 96 1011.8
20260505093434 45 274 0.0 0.0 0.00 0.00 0.00 95 1011.6
20260505092931 45 274 0.0 0.0 0.00 0.00 0.00 95 1011.8
20260505092429 45 274 0.0 0.0 0.00 0.00 0.00 95 1011.6
20260505091926 45 274 0.0 0.0 0.00 0.00 0.00 95 1011.7
20260505091424 45 275 0.0 0.0 0.00 0.00 0.00 95 1011.5
20260505090922 45 275 0.0 0.0 0.00 0.00 0.00 94 1011.6
20260505090420 45 275 0.0 0.0 0.00 0.00 0.00 94 1011.6
20260505085917 46 275 0.0 0.0 0.00 0.00 0.00 94 1011.6
20260505085415 45 275 0.0 0.0 0.00 0.00 0.00 94 1011.3
20260505084913 46 310 0.0 0.0 0.00 0.00 0.00 94 1011.7
20260505084411 46 311 0.0 0.0 0.00 0.00 0.00 93 1011.5
20260505083909 46 312 0.0 1.0 0.00 0.00 0.00 93 1011.3
20260505083406 46 306 1.0 1.0 0.00 0.00 0.00 93 1011.3
20260505082901 47 252 0.0 0.0 0.00 0.00 0.00 93 1011.2
20260505082357 47 251 0.0 0.0 0.00 0.00 0.00 93 1011.2
20260505081854 47 251 0.0 0.0 0.00 0.00 0.00 93 1011.2
20260505081351 46 251 0.0 0.0 0.00 0.00 0.00 93 1011.1
20260505080848 46 251 0.0 0.0 0.00 0.00 0.00 92 1010.8
20260505080344 46 251 0.0 0.0 0.00 0.00 0.00 91 1011.0
20260505075840 47 252 0.0 0.0 0.00 0.00 0.00 91 1011.0
20260505075337 47 252 0.0 0.0 0.00 0.00 0.00 91 1011.1
20260505074834 47 251 0.0 0.0 0.00 0.00 0.00 90 1011.1
20260505074331 48 252 0.0 0.0 0.00 0.00 0.00 90 1010.9
20260505073828 48 251 0.0 0.0 0.00 0.00 0.00 90 1011.0
20260505073326 48 251 0.0 0.0 0.00 0.00 0.00 89 1010.9
20260505072823 48 251 0.0 0.0 0.00 0.00 0.00 89 1011.1
20260505072319 48 252 0.0 0.0 0.00 0.00 0.00 89 1011.0
20260505071815 48 251 0.0 0.0 0.00 0.00 0.00 89 1010.7
20260505071312 48 252 0.0 0.0 0.00 0.00 0.00 88 1010.8
20260505070810 48 252 0.0 0.0 0.00 0.00 0.00 88 1010.8
20260505070306 48 252 0.0 0.0 0.00 0.00 0.00 88 1010.7
20260505065801 48 251 0.0 0.0 0.00 0.00 0.00 88 1010.6
20260505065258 48 251 0.0 0.0 0.00 0.00 0.00 87 1010.5
20260505064755 49 251 0.0 0.0 0.00 0.00 0.00 87 1010.6
20260505064252 49 251 0.0 0.0 0.00 0.00 0.00 86 1010.6
20260505063750 49 251 0.0 0.0 0.00 0.00 0.00 86 1010.7
20260505063246 49 251 0.0 0.0 0.00 0.00 0.00 86 1010.8
20260505062743 50 251 0.0 0.0 0.00 0.00 0.00 85 1010.9
20260505062241 50 251 0.0 0.0 0.00 0.00 0.00 84 1010.7
20260505061737 51 251 0.0 0.0 0.00 0.00 0.00 83 1010.9
20260505061235 51 251 0.0 0.0 0.00 0.00 0.00 82 1010.6
20260505060732 51 252 0.0 0.0 0.00 0.00 0.00 82 1010.9
20260505060229 52 256 0.0 0.0 0.00 0.00 0.00 81 1010.7
20260505055724 51 200 0.0 0.0 0.00 0.00 0.00 81 1010.7
20260505055221 51 202 0.0 0.0 0.00 0.00 0.00 83 1010.8
20260505054719 51 202 0.0 0.0 0.00 0.00 0.00 83 1010.8
20260505054216 51 202 0.0 0.0 0.00 0.00 0.00 84 1011.0
20260505053715 52 202 0.0 0.0 0.00 0.00 0.00 84 1010.8
20260505053210 52 202 0.0 0.0 0.00 0.00 0.00 84 1010.7
20260505052708 52 202 0.0 0.0 0.00 0.00 0.00 84 1010.8
20260505052204 52 202 0.0 0.0 0.00 0.00 0.00 84 1010.7
20260505051702 52 202 0.0 0.0 0.00 0.00 0.00 84 1010.9
20260505051200 52 202 0.0 0.0 0.00 0.00 0.00 83 1010.9
20260505050657 52 202 0.0 0.0 0.00 0.00 0.00 83 1010.8
20260505050155 51 202 0.0 0.0 0.00 0.00 0.00 82 1010.8
20260505041625 52 202 0.0 0.0 0.00 0.00 0.00 81 1011.1
20260505041122 52 202 0.0 0.0 0.00 0.00 0.00 79 1011.2
20260505040619 52 202 0.0 0.0 0.00 0.00 0.00 79 1011.0
20260505040116 52 202 0.0 0.0 0.00 0.00 0.00 79 1010.9
20260505035613 52 202 0.0 0.0 0.00 0.00 0.00 79 1011.0
20260505035109 52 202 0.0 0.0 0.00 0.00 0.00 78 1011.1
20260505034606 52 202 0.0 0.0 0.00 0.00 0.00 78 1010.9
20260505034103 52 202 0.0 0.0 0.00 0.00 0.00 78 1010.8
20260505033559 52 202 0.0 0.0 0.00 0.00 0.00 78 1010.9
20260505033058 53 202 0.0 0.0 0.00 0.00 0.00 77 1011.0
20260505032555 53 202 0.0 0.0 0.00 0.00 0.00 76 1010.9
20260505032051 53 202 0.0 0.0 0.00 0.00 0.00 75 1011.1
20260505031549 53 202 0.0 0.0 0.00 0.00 0.00 74 1010.9
20260505031045 54 202 0.0 0.0 0.00 0.00 0.00 73 1010.8
20260505030542 54 202 0.0 0.0 0.00 0.00 0.00 74 1011.0
20260505030038 54 202 0.0 0.0 0.00 0.00 0.00 74 1011.2
20260505025534 54 202 0.0 0.0 0.00 0.00 0.00 73 1011.1
20260505025033 55 202 0.0 0.0 0.00 0.00 0.00 73 1011.0
20260505024530 55 202 0.0 0.0 0.00 0.00 0.00 72 1011.0
20260505024027 55 202 0.0 0.0 0.00 0.00 0.00 72 1011.0
20260505023524 55 202 0.0 0.0 0.00 0.00 0.00 71 1011.0
20260505023021 55 202 0.0 0.0 0.00 0.00 0.00 72 1011.0
20260505022519 56 202 0.0 0.0 0.00 0.00 0.00 71 1011.0
20260505022016 56 202 0.0 0.0 0.00 0.00 0.00 70 1011.0
20260505021512 56 202 0.0 0.0 0.00 0.00 0.00 69 1010.8
20260505021009 56 202 0.0 0.0 0.00 0.00 0.00 69 1010.9
20260505020503 57 202 0.0 0.0 0.00 0.00 0.00 68 1011.0
20260505020000 57 202 0.0 0.0 0.00 0.00 0.00 67 1010.9
20260505015458 57 202 0.0 0.0 0.00 0.00 0.00 66 1010.8
20260505014955 57 202 0.0 0.0 0.00 0.00 0.00 66 1010.9
20260505014452 58 202 0.0 0.0 0.00 0.00 0.00 65 1011.0
20260505013949 58 202 0.0 0.0 0.00 0.00 0.00 64 1010.9
20260505013446 59 202 0.0 0.0 0.00 0.00 0.00 63 1010.9
20260505012943 59 202 0.0 0.0 0.00 0.00 0.00 63 1010.7
20260505012441 59 202 0.0 0.0 0.00 0.00 0.00 62 1010.6
20260505011938 60 202 0.0 0.0 0.00 0.00 0.00 62 1010.4
20260505011434 60 202 0.0 0.0 0.00 0.00 0.00 61 1010.5
20260505010931 61 202 0.0 0.0 0.00 0.00 0.00 60 1010.4
20260505010426 61 202 0.0 0.0 0.00 0.00 0.00 60 1010.2
20260505005922 62 202 0.0 0.0 0.00 0.00 0.00 59 1010.0
20260505005419 62 202 0.0 0.0 0.00 0.00 0.00 58 1010.0
20260505004917 63 202 0.0 0.0 0.00 0.00 0.00 55 1010.1
20260505004413 64 202 0.0 0.0 0.00 0.00 0.00 54 1010.1
20260505003910 64 202 0.0 0.0 0.00 0.00 0.00 53 1010.0
20260505003408 65 202 0.0 0.0 0.00 0.00 0.00 51 1009.9
20260505002903 66 202 0.0 0.0 0.00 0.00 0.00 45 1010.0
20260505002400 66 202 0.0 0.0 0.00 0.00 0.00 41 1009.8
20260505001859 67 202 0.0 0.0 0.00 0.00 0.00 41 1009.8
20260505001355 68 201 0.0 0.0 0.00 0.00 0.00 41 1010.0
20260505000853 68 248 0.0 0.0 0.00 0.00 0.00 40 1010.1
20260505000351 69 248 0.0 0.0 0.00 0.00 0.00 39 1009.9
20260504235847 69 248 0.0 0.0 0.00 0.00 0.00 37 1009.5
20260504235344 69 248 0.0 0.0 0.00 0.00 0.00 42 1009.8
20260504234840 70 248 0.0 0.0 0.00 0.00 0.00 44 1009.5
20260504234338 70 248 0.0 0.0 0.00 0.00 0.00 39 1009.4
20260504233835 71 248 0.0 0.0 0.00 0.00 0.00 38 1009.4
20260504233330 71 248 0.0 0.0 0.00 0.00 0.00 38 1009.2
20260504232828 72 248 0.0 0.0 0.00 0.00 0.00 37 1009.6
20260504232324 72 248 0.0 0.0 0.00 0.00 0.00 37 1009.3
20260504231821 73 248 0.0 0.0 0.00 0.00 0.00 37 1009.4
20260504231318 73 248 0.0 1.0 0.00 0.00 0.00 36 1009.3
20260504230814 73 249 0.0 0.0 0.00 0.00 0.00 36 1009.2
20260504230312 74 249 0.0 0.0 0.00 0.00 0.00 37 1009.0
20260504225811 74 224 1.0 1.0 0.00 0.00 0.00 36 1009.2
20260504225306 74 221 0.0 0.0 0.00 0.00 0.00 38 1009.2
20260504224804 74 260 0.0 0.0 0.00 0.00 0.00 35 1009.3
20260504224301 74 260 0.0 0.0 0.00 0.00 0.00 34 1009.2
20260504223757 74 240 0.0 0.0 0.00 0.00 0.00 36 1009.2
20260504223253 74 251 0.0 1.0 0.00 0.00 0.00 37 1009.2
20260504222750 74 218 0.0 1.0 0.00 0.00 0.00 36 1009.1
20260504222247 75 241 0.0 0.0 0.00 0.00 0.00 40 1009.3
20260504221744 75 236 1.0 2.0 0.00 0.00 0.00 37 1009.2
20260504221236 75 272 1.0 1.0 0.00 0.00 0.00 33 1009.2
20260504220732 76 250 0.0 0.0 0.00 0.00 0.00 36 1009.4
20260504220230 75 222 2.0 2.0 0.00 0.00 0.00 34 1009.4
20260504215727 76 246 0.0 1.0 0.00 0.00 0.00 37 1009.4
20260504215223 76 259 0.0 0.0 0.00 0.00 0.00 33 1009.2
20260504214719 76 245 1.0 1.0 0.00 0.00 0.00 31 1009.3
20260504214216 76 242 1.0 1.0 0.00 0.00 0.00 38 1009.3
20260504213713 76 242 1.0 1.0 0.00 0.00 0.00 33 1009.5
20260504213209 76 230 2.0 2.0 0.00 0.00 0.00 34 1009.4
20260504212706 77 260 1.0 1.0 0.00 0.00 0.00 34 1009.3
20260504212203 77 229 1.0 1.0 0.00 0.00 0.00 33 1009.5
20260504211700 77 234 1.0 1.0 0.00 0.00 0.00 37 1009.5
20260504211156 77 223 0.0 0.0 0.00 0.00 0.00 34 1009.4
20260504210654 77 263 1.0 1.0 0.00 0.00 0.00 33 1009.3
20260504210150 77 245 0.0 1.0 0.00 0.00 0.00 34 1009.5
20260504205648 77 268 2.0 2.0 0.00 0.00 0.00 33 1009.4
20260504205145 78 228 2.0 2.0 0.00 0.00 0.00 35 1009.5
20260504204643 78 239 0.0 0.0 0.00 0.00 0.00 34 1009.6
20260504204142 78 230 2.0 2.0 0.00 0.00 0.00 34 1009.8
20260504203640 79 238 3.0 3.0 0.00 0.00 0.00 33 1009.7
20260504203137 80 266 1.0 1.0 0.00 0.00 0.00 33 1009.7
20260504202632 79 290 1.0 2.0 0.00 0.00 0.00 34 1009.8
20260504202129 79 233 3.0 3.0 0.00 0.00 0.00 34 1009.8
20260504201626 79 246 1.0 1.0 0.00 0.00 0.00 36 1010.0
20260504201124 79 278 1.0 2.0 0.00 0.00 0.00 33 1009.8